This demonstration page uses our WeatherBlox Daily Observations layout. Learn more.

Hourly Observations for January 12, 2015

Temp ( °F °C ) Dew Point ( °F °C ) Humidity (%) Winds ( mph kmh ) Pressure ( in mb ) Visibility ( mi km ) Precip ( " mm )
12:15 am 00:15 Partly Cloudy 14 -9.8 7 -13.7 73 73 N 14 22 30.56 1035 10 16.0934 0 0
12:35 am 00:35 Mostly Cloudy 14 -9.8 8 -13.6 74 74 N 15 24 30.59 1036 10 16.0934 0 0
12:55 am 00:55 Partly Cloudy 14 -9.9 7 -14 72 72 N 13 20 30.59 1036 10 16.0934 0 0
1:15 am 01:15 Partly Cloudy 14 -9.8 6 -14.2 71 71 N 13 20 30.62 1037 10 16.0934 0 0
1:35 am 01:35 Cloudy 14 -9.8 6 -14.5 69 69 N 16 26 30.62 1037 10 16.0934 0 0
1:55 am 01:55 Cloudy 15 -9.7 6 -14.6 68 68 N 15 24 30.62 1037 10 16.0934 0 0
2:15 am 02:15 Partly Cloudy 14 -10 6 -14.7 69 69 N 10 17 30.65 1038 10 16.0934 0 0
2:35 am 02:35 Clear 13 -10.3 6 -14.6 71 71 N 9 15 30.65 1038 10 16.0934 0 0
2:55 am 02:55 Partly Cloudy 14 -9.8 7 -14 72 72 N 10 17 30.65 1038 10 16.0934 0 0
3:15 am 03:15 Cloudy 16 -9 7 -14 67 67 N 12 19 30.65 1038 10 16.0934 0 0
3:35 am 03:35 Mostly Cloudy 15 -9.2 7 -13.9 69 69 N 14 22 30.65 1038 10 16.0934 0 0
3:55 am 03:55 Partly Cloudy 15 -9.6 7 -14 71 71 N 10 17 30.68 1039 10 16.0934 0 0
4:15 am 04:15 Mostly Cloudy 16 -9 7 -14.1 67 67 N 12 19 30.68 1039 10 16.0934 0 0
4:35 am 04:35 Cloudy 17 -8.5 6 -14.5 62 62 N 15 24 30.65 1038 10 16.0934 0 0
4:55 am 04:55 Cloudy 16 -8.7 6 -14.3 64 64 N 16 26 30.68 1039 10 16.0934 0 0
5:15 am 05:15 Cloudy 17 -8.6 7 -14.1 65 65 N 13 20 30.68 1039 10 16.0934 0 0
5:35 am 05:35 Cloudy 16 -8.7 6 -14.2 65 65 N 16 26 30.68 1039 10 16.0934 0 0
5:55 am 05:55 Cloudy 17 -8.6 7 -14 65 65 N 18 30 30.68 1039 10 16.0934 0 0
6:15 am 06:15 Cloudy 17 -8.6 7 -13.9 66 66 N 17 28 30.71 1040 10 16.0934 0 0
6:35 am 06:35 Cloudy 17 -8.6 8 -13.6 67 67 N 14 22 30.71 1040 10 16.0934 0 0
6:55 am 06:55 Cloudy 16 -8.7 8 -13.5 69 69 N 15 24 30.74 1041 10 16.0934 0 0
7:15 am 07:15 Cloudy 16 -9.1 7 -14.1 67 67 NNE 16 26 30.74 1041 10 16.0934 0 0
7:35 am 07:35 Mostly Cloudy 14 -10 6 -14.7 69 69 NNE 16 26 30.74 1041 10 16.0934 0 0
7:55 am 07:55 Partly Cloudy 13 -10.5 5 -14.8 71 71 NNE 12 19 30.74 1041 10 16.0934 0 0
8:15 am 08:15 Sunny 13 -10.5 6 -14.5 73 73 N 9 15 30.77 1042 10 16.0934 0 0
8:35 am 08:35 Sunny 14 -10 6 -14.2 72 72 N 12 19 30.74 1041 10 16.0934 0 0
8:55 am 08:55 Sunny 15 -9.5 7 -14 70 70 N 15 24 30.77 1042 10 16.0934 0 0
9:15 am 09:15 Sunny 15 -9.2 8 -13.6 71 71 N 13 20 30.77 1042 10 16.0934 0 0
9:35 am 09:35 Sunny 16 -9 8 -13.5 70 70 N 13 20 30.8 1043 10 16.0934 0 0
9:55 am 09:55 Sunny 17 -8.5 8 -13.3 69 69 N 13 20 30.8 1043 10 16.0934 0 0
10:15 am 10:15 Sunny 17 -8.4 8 -13.1 69 69 N 12 19 30.8 1043 10 16.0934 0 0
10:35 am 10:35 Sunny 18 -7.9 8 -13.2 66 66 N 10 17 30.8 1043 10 16.0934 0 0
10:55 am 10:55 Sunny 19 -7.2 8 -13.3 62 62 N 12 19 30.77 1042 10 16.0934 0 0
11:15 am 11:15 Sunny 20 -6.5 8 -13.4 58 58 NNE 12 19 30.77 1042 10 16.0934 0 0
11:35 am 11:35 Sunny 20 -6.7 8 -13.6 58 58 N 12 19 30.77 1042 10 16.0934 0 0
11:55 am 11:55 Sunny 20 -6.8 6 -14.6 54 54 NNE 17 28 30.77 1042 10 16.0934 0 0
12:15 pm 12:15 Sunny 19 -7.1 5 -15.1 53 53 NNE 15 24 30.74 1041 10 16.0934 0 0
12:35 pm 12:35 Sunny 19 -7.4 5 -15.1 54 54 N 12 19 30.74 1041 10 16.0934 0 0
12:55 pm 12:55 Mostly Cloudy 19 -7.5 5 -15 55 55 NE 15 24 30.74 1041 10 16.0934 0 0
1:15 pm 13:15 Mostly Cloudy 19 -7.2 4 -15.4 52 52 NE 9 15 30.74 1041 10 16.0934 0 0
1:35 pm 13:35 Cloudy 22 -5.8 4 -15.7 46 46 NE 10 17 30.74 1041 10 16.0934 0 0
1:55 pm 13:55 Cloudy 20 -6.6 3 -16.2 47 47 NNE 9 15 30.74 1041 10 16.0934 0 0
2:15 pm 14:15 Cloudy 20 -6.7 1 -17.2 43 43 NNE 7 11 30.74 1041 10 16.0934 0 0
2:35 pm 14:35 Cloudy 20 -6.6 0 -17.8 41 41 NNE 9 15 30.71 1040 10 16.0934 0 0
2:55 pm 14:55 Cloudy 20 -6.8 1 -17 44 44 NE 12 19 30.71 1040 10 16.0934 0 0
3:15 pm 15:15 Cloudy 20 -6.8 1 -17.3 43 43 NE 9 15 30.71 1040 10 16.0934 0 0
3:35 pm 15:35 Cloudy 20 -6.8 1 -17.3 43 43 NE 8 13 30.71 1040 10 16.0934 0 0
3:55 pm 15:55 Cloudy 19 -7 0 -17.8 42 42 ENE 8 13 30.71 1040 10 16.0934 0 0
4:15 pm 16:15 Cloudy 19 -7.4 1 -17.4 45 45 NE 9 15 30.71 1040 10 16.0934 0 0
4:35 pm 16:35 Cloudy 19 -7.5 1 -17 47 47 NE 10 17 30.71 1040 10 16.0934 0 0
4:55 pm 16:55 Cloudy 18 -7.6 2 -16.7 48 48 ENE 9 15 30.74 1041 10 16.0934 0 0
5:15 pm 17:15 Cloudy 18 -7.7 2 -16.9 48 48 NE 8 13 30.77 1042 10 16.0934 0 0
5:35 pm 17:35 Cloudy 18 -7.8 2 -16.6 50 50 NE 6 9 30.77 1042 10 16.0934 0 0
5:55 pm 17:55 Cloudy 18 -8 2 -16.6 50 50 NE 8 13 30.77 1042 10 16.0934 0 0
6:15 pm 18:15 Cloudy 18 -8 2 -16.6 50 50 ENE 8 13 30.77 1042 10 16.0934 0 0
6:35 pm 18:35 Cloudy 17 -8.1 3 -16.2 53 53 ENE 8 13 30.77 1042 10 16.0934 0 0
6:55 pm 18:55 Cloudy 17 -8.3 3 -16 54 54 NE 7 11 30.77 1042 10 16.0934 0 0
7:15 pm 19:15 Cloudy 17 -8.5 2 -16.4 53 53 E 7 11 30.77 1042 10 16.0934 0 0
7:35 pm 19:35 Cloudy 17 -8.5 2 -16.5 53 53 E 5 7 30.77 1042 10 16.0934 0 0
7:55 pm 19:55 Cloudy 17 -8.5 2 -16.6 52 52 ENE 7 11 30.77 1042 10 16.0934 0 0
8:15 pm 20:15 Cloudy 17 -8.6 3 -16.3 54 54 ENE 8 13 30.77 1042 10 16.0934 0 0
8:35 pm 20:35 Cloudy 16 -8.8 2 -16.4 55 55 E 9 15 30.77 1042 10 16.0934 0 0
8:55 pm 20:55 Cloudy 16 -9 2 -16.6 54 54 E 7 11 30.77 1042 10 16.0934 0 0
9:15 pm 21:15 Cloudy 16 -9 2 -16.4 55 55 E 8 13 30.77 1042 10 16.0934 0 0
9:35 pm 21:35 Cloudy 16 -9 3 -16.3 56 56 E 7 11 30.77 1042 10 16.0934 0 0
9:55 pm 21:55 Cloudy 15 -9.2 2 -16.4 56 56 E 9 15 30.77 1042 10 16.0934 0 0
10:15 pm 22:15 Cloudy 15 -9.5 2 -16.4 58 58 ESE 8 13 30.77 1042 10 16.0934 0 0
10:35 pm 22:35 Cloudy 14 -9.8 3 -16.2 60 60 E 8 13 30.77 1042 10 16.0934 0 0
10:55 pm 22:55 Cloudy 14 -10 2 -16.5 59 59 ESE 9 15 30.77 1042 10 16.0934 0 0
11:15 pm 23:15 Cloudy 13 -10.5 2 -16.5 62 62 ESE 9 15 30.77 1042 10 16.0934 0 0
11:35 pm 23:35 Cloudy 13 -10.6 2 -16.5 62 62 ESE 9 15 30.8 1043 10 16.0934 0 0
11:55 pm 23:55 Cloudy 13 -10.7 2 -16.4 63 63 SE 8 13 30.77 1042 10 16.0934 0 0

Powered by AerisWeather